#datetime,building,power
2023-07-19T00:00:00,crh,16.87
2023-07-19T00:01:00,crh,16.02
2023-07-19T00:02:00,crh,7.15
2023-07-19T00:03:00,crh,7.14
2023-07-19T00:04:00,crh,7.78
2023-07-19T00:05:00,crh,7.76
2023-07-19T00:06:00,crh,7.77
2023-07-19T00:07:00,crh,7.76
2023-07-19T00:08:00,crh,11.68
2023-07-19T00:09:00,crh,11.53
2023-07-19T00:10:00,crh,11.22
2023-07-19T00:11:00,crh,11.67
2023-07-19T00:12:00,crh,11.68
2023-07-19T00:13:00,crh,7.41
2023-07-19T00:14:00,crh,7.40
2023-07-19T00:15:00,crh,7.39
2023-07-19T00:16:00,crh,7.37
2023-07-19T00:17:00,crh,7.37
2023-07-19T00:18:00,crh,6.39
2023-07-19T00:19:00,crh,6.47
2023-07-19T00:20:00,crh,8.06
2023-07-19T00:21:00,crh,7.37
2023-07-19T00:22:00,crh,7.33
2023-07-19T00:23:00,crh,7.35
2023-07-19T00:24:00,crh,8.67
2023-07-19T00:25:00,crh,7.36
2023-07-19T00:26:00,crh,7.35
2023-07-19T00:27:00,crh,7.35
2023-07-19T00:28:00,crh,7.36
2023-07-19T00:29:00,crh,13.85
2023-07-19T00:30:00,crh,11.16
2023-07-19T00:31:00,crh,10.88
2023-07-19T00:32:00,crh,10.81
2023-07-19T00:33:00,crh,10.83
2023-07-19T00:34:00,crh,6.80
2023-07-19T00:35:00,crh,8.85
2023-07-19T00:36:00,crh,7.28
2023-07-19T00:37:00,crh,6.66
2023-07-19T00:38:00,crh,6.66
2023-07-19T00:39:00,crh,7.82
2023-07-19T00:40:00,crh,7.86
2023-07-19T00:41:00,crh,7.29
2023-07-19T00:42:00,crh,7.60
2023-07-19T00:43:00,crh,7.28
2023-07-19T00:44:00,crh,8.85
2023-07-19T00:45:00,crh,7.27
2023-07-19T00:46:00,crh,7.28
2023-07-19T00:47:00,crh,7.27
2023-07-19T00:48:00,crh,6.93
2023-07-19T00:49:00,crh,11.51
2023-07-19T00:50:00,crh,12.57
2023-07-19T00:51:00,crh,11.24
2023-07-19T00:52:00,crh,11.20
2023-07-19T00:53:00,crh,12.78
2023-07-19T00:54:00,crh,11.24
2023-07-19T00:55:00,crh,6.16
2023-07-19T00:56:00,crh,7.74
2023-07-19T00:57:00,crh,6.70
2023-07-19T00:58:00,crh,7.78
2023-07-19T00:59:00,crh,8.96
2023-07-19T01:00:00,crh,8.95
2023-07-19T01:01:00,crh,7.38
2023-07-19T01:02:00,crh,7.47
2023-07-19T01:03:00,crh,7.45
2023-07-19T01:04:00,crh,9.02
2023-07-19T01:05:00,crh,7.44
2023-07-19T01:06:00,crh,7.42
2023-07-19T01:07:00,crh,7.43
2023-07-19T01:08:00,crh,7.46
2023-07-19T01:09:00,crh,7.42
2023-07-19T01:10:00,crh,12.13
2023-07-19T01:11:00,crh,11.61
2023-07-19T01:12:00,crh,11.77
2023-07-19T01:13:00,crh,12.69
2023-07-19T01:14:00,crh,10.81
2023-07-19T01:15:00,crh,8.39
2023-07-19T01:16:00,crh,7.40
2023-07-19T01:17:00,crh,7.21
2023-07-19T01:18:00,crh,8.80
2023-07-19T01:19:00,crh,7.22
2023-07-19T01:20:00,crh,9.30
2023-07-19T01:21:00,crh,7.73
2023-07-19T01:22:00,crh,7.74
2023-07-19T01:23:00,crh,7.38
2023-07-19T01:24:00,crh,8.96
2023-07-19T01:25:00,crh,7.38
2023-07-19T01:26:00,crh,7.38
2023-07-19T01:27:00,crh,7.29
2023-07-19T01:28:00,crh,7.28
2023-07-19T01:29:00,crh,7.29
2023-07-19T01:30:00,crh,12.68
2023-07-19T01:31:00,crh,10.56
2023-07-19T01:32:00,crh,10.66
2023-07-19T01:33:00,crh,10.62
2023-07-19T01:34:00,crh,11.81
2023-07-19T01:35:00,crh,8.94
2023-07-19T01:36:00,crh,7.28
2023-07-19T01:37:00,crh,7.27
2023-07-19T01:38:00,crh,7.27
2023-07-19T01:39:00,crh,6.77
2023-07-19T01:40:00,crh,6.76
2023-07-19T01:41:00,crh,6.44
2023-07-19T01:42:00,crh,8.48
2023-07-19T01:43:00,crh,6.93
2023-07-19T01:44:00,crh,7.73
2023-07-19T01:45:00,crh,7.01
2023-07-19T01:46:00,crh,7.00
2023-07-19T01:47:00,crh,7.32
2023-07-19T01:48:00,crh,8.27
2023-07-19T01:49:00,crh,8.37
2023-07-19T01:50:00,crh,6.70
2023-07-19T01:51:00,crh,10.39
2023-07-19T01:52:00,crh,12.17
2023-07-19T01:53:00,crh,11.85
2023-07-19T01:54:00,crh,10.61
2023-07-19T01:55:00,crh,10.64
2023-07-19T01:56:00,crh,6.65
2023-07-19T01:57:00,crh,6.65
2023-07-19T01:58:00,crh,6.67
2023-07-19T01:59:00,crh,6.61
2023-07-19T02:00:00,crh,6.59
2023-07-19T02:01:00,crh,6.10
2023-07-19T02:02:00,crh,7.71
2023-07-19T02:03:00,crh,6.08
2023-07-19T02:04:00,crh,6.61
2023-07-19T02:05:00,crh,6.59
2023-07-19T02:06:00,crh,6.69
2023-07-19T02:07:00,crh,8.15
2023-07-19T02:08:00,crh,6.74
2023-07-19T02:09:00,crh,6.70
2023-07-19T02:10:00,crh,8.25
2023-07-19T02:11:00,crh,10.60
2023-07-19T02:12:00,crh,10.67
2023-07-19T02:13:00,crh,10.63
2023-07-19T02:14:00,crh,10.28
2023-07-19T02:15:00,crh,10.27
2023-07-19T02:16:00,crh,6.34
2023-07-19T02:17:00,crh,6.65
2023-07-19T02:18:00,crh,8.60
2023-07-19T02:19:00,crh,7.04
2023-07-19T02:20:00,crh,7.05
2023-07-19T02:21:00,crh,7.04
2023-07-19T02:22:00,crh,7.04
2023-07-19T02:23:00,crh,6.56
2023-07-19T02:24:00,crh,6.53
2023-07-19T02:25:00,crh,6.53
2023-07-19T02:26:00,crh,6.75
2023-07-19T02:27:00,crh,8.69
2023-07-19T02:28:00,crh,7.10
2023-07-19T02:29:00,crh,8.04
2023-07-19T02:30:00,crh,10.98
2023-07-19T02:31:00,crh,10.75
2023-07-19T02:32:00,crh,10.70
2023-07-19T02:33:00,crh,10.69
2023-07-19T02:34:00,crh,10.70
2023-07-19T02:35:00,crh,6.72
2023-07-19T02:36:00,crh,7.82
2023-07-19T02:37:00,crh,6.65
2023-07-19T02:38:00,crh,6.62
2023-07-19T02:39:00,crh,6.62
2023-07-19T02:40:00,crh,6.63
2023-07-19T02:41:00,crh,6.62
2023-07-19T02:42:00,crh,7.11
2023-07-19T02:43:00,crh,6.55
2023-07-19T02:44:00,crh,8.13
2023-07-19T02:45:00,crh,6.21
2023-07-19T02:46:00,crh,5.73
2023-07-19T02:47:00,crh,5.97
2023-07-19T02:48:00,crh,7.60
2023-07-19T02:49:00,crh,10.42
2023-07-19T02:50:00,crh,10.52
2023-07-19T02:51:00,crh,10.46
2023-07-19T02:52:00,crh,12.05
2023-07-19T02:53:00,crh,12.13
2023-07-19T02:54:00,crh,9.27
2023-07-19T02:55:00,crh,8.13
2023-07-19T02:56:00,crh,6.57
2023-07-19T02:57:00,crh,6.56
2023-07-19T02:58:00,crh,8.16
2023-07-19T02:59:00,crh,6.59
2023-07-19T03:00:00,crh,6.60
2023-07-19T03:01:00,crh,6.59
2023-07-19T03:02:00,crh,8.18
2023-07-19T03:03:00,crh,8.17
2023-07-19T03:04:00,crh,6.59
2023-07-19T03:05:00,crh,8.16
2023-07-19T03:06:00,crh,8.24
2023-07-19T03:07:00,crh,6.58
2023-07-19T03:08:00,crh,6.58
2023-07-19T03:09:00,crh,7.30
2023-07-19T03:10:00,crh,9.93
2023-07-19T03:11:00,crh,10.54
2023-07-19T03:12:00,crh,10.62
2023-07-19T03:13:00,crh,11.81
2023-07-19T03:14:00,crh,10.27
2023-07-19T03:15:00,crh,6.39
2023-07-19T03:16:00,crh,6.70
2023-07-19T03:17:00,crh,6.71
2023-07-19T03:18:00,crh,6.71
2023-07-19T03:19:00,crh,6.79
2023-07-19T03:20:00,crh,8.34
2023-07-19T03:21:00,crh,6.77
2023-07-19T03:22:00,crh,6.76
2023-07-19T03:23:00,crh,6.74
2023-07-19T03:24:00,crh,6.71
2023-07-19T03:25:00,crh,6.70
2023-07-19T03:26:00,crh,7.90
2023-07-19T03:27:00,crh,6.68
2023-07-19T03:28:00,crh,8.61
2023-07-19T03:29:00,crh,7.03
2023-07-19T03:30:00,crh,7.02
2023-07-19T03:31:00,crh,8.56
2023-07-19T03:32:00,crh,10.38
2023-07-19T03:33:00,crh,10.46
2023-07-19T03:34:00,crh,10.46
2023-07-19T03:35:00,crh,10.94
2023-07-19T03:36:00,crh,10.97
2023-07-19T03:37:00,crh,7.00
2023-07-19T03:38:00,crh,6.99
2023-07-19T03:39:00,crh,7.00
2023-07-19T03:40:00,crh,6.67
2023-07-19T03:41:00,crh,6.29
2023-07-19T03:42:00,crh,7.85
2023-07-19T03:43:00,crh,6.29
2023-07-19T03:44:00,crh,8.07
2023-07-19T03:45:00,crh,6.51
2023-07-19T03:46:00,crh,6.52
2023-07-19T03:47:00,crh,6.53
2023-07-19T03:48:00,crh,6.53
2023-07-19T03:49:00,crh,8.11
2023-07-19T03:50:00,crh,6.54
2023-07-19T03:51:00,crh,10.47
2023-07-19T03:52:00,crh,10.51
2023-07-19T03:53:00,crh,11.34
2023-07-19T03:54:00,crh,10.08
2023-07-19T03:55:00,crh,10.08
2023-07-19T03:56:00,crh,6.11
2023-07-19T03:57:00,crh,7.66
2023-07-19T03:58:00,crh,6.59
2023-07-19T03:59:00,crh,6.60
2023-07-19T04:00:00,crh,6.60
2023-07-19T04:01:00,crh,6.59
2023-07-19T04:02:00,crh,6.59
2023-07-19T04:03:00,crh,8.13
2023-07-19T04:04:00,crh,6.59
2023-07-19T04:05:00,crh,6.59
2023-07-19T04:06:00,crh,6.57
2023-07-19T04:07:00,crh,6.19
2023-07-19T04:08:00,crh,6.25
2023-07-19T04:09:00,crh,7.76
2023-07-19T04:10:00,crh,6.52
2023-07-19T04:11:00,crh,6.52
2023-07-19T04:12:00,crh,6.51
2023-07-19T04:13:00,crh,10.24
2023-07-19T04:14:00,crh,11.99
2023-07-19T04:15:00,crh,10.48
2023-07-19T04:16:00,crh,10.46
2023-07-19T04:17:00,crh,11.55
2023-07-19T04:18:00,crh,6.03
2023-07-19T04:19:00,crh,6.03
2023-07-19T04:20:00,crh,6.03
2023-07-19T04:21:00,crh,6.53
2023-07-19T04:22:00,crh,8.08
2023-07-19T04:23:00,crh,8.08
2023-07-19T04:24:00,crh,6.27
2023-07-19T04:25:00,crh,7.56
2023-07-19T04:26:00,crh,7.49
2023-07-19T04:27:00,crh,6.61
2023-07-19T04:28:00,crh,6.25
2023-07-19T04:29:00,crh,6.59
2023-07-19T04:30:00,crh,6.60
2023-07-19T04:31:00,crh,8.16
2023-07-19T04:32:00,crh,6.83
2023-07-19T04:33:00,crh,5.91
2023-07-19T04:34:00,crh,6.71
2023-07-19T04:35:00,crh,8.20
2023-07-19T04:36:00,crh,16.70
2023-07-19T04:37:00,crh,6.68
2023-07-19T04:38:00,crh,11.36
2023-07-19T04:39:00,crh,11.00
2023-07-19T04:40:00,crh,10.51
2023-07-19T04:41:00,crh,10.53
2023-07-19T04:42:00,crh,10.52
2023-07-19T04:43:00,crh,7.04
2023-07-19T04:44:00,crh,7.04
2023-07-19T04:45:00,crh,7.05
2023-07-19T04:46:00,crh,6.70
2023-07-19T04:47:00,crh,7.06
2023-07-19T04:48:00,crh,16.59
2023-07-19T04:49:00,crh,16.30
2023-07-19T04:50:00,crh,17.42
2023-07-19T04:51:00,crh,6.62
2023-07-19T04:52:00,crh,6.63
2023-07-19T04:53:00,crh,8.17
2023-07-19T04:54:00,crh,6.18
2023-07-19T04:55:00,crh,7.10
2023-07-19T04:56:00,crh,6.53
2023-07-19T04:57:00,crh,6.18
2023-07-19T04:58:00,crh,6.19
2023-07-19T04:59:00,crh,5.83
2023-07-19T05:00:00,crh,6.51
2023-07-19T05:01:00,crh,6.88
2023-07-19T05:02:00,crh,6.06
2023-07-19T05:03:00,crh,9.72
2023-07-19T05:04:00,crh,11.47
2023-07-19T05:05:00,crh,10.46
2023-07-19T05:06:00,crh,10.88
2023-07-19T05:07:00,crh,10.84
2023-07-19T05:08:00,crh,17.96
2023-07-19T05:09:00,crh,6.91
2023-07-19T05:10:00,crh,8.43
2023-07-19T05:11:00,crh,6.89
2023-07-19T05:12:00,crh,6.88
2023-07-19T05:13:00,crh,8.43
2023-07-19T05:14:00,crh,6.88
2023-07-19T05:15:00,crh,6.53
2023-07-19T05:16:00,crh,6.17
2023-07-19T05:17:00,crh,8.12
2023-07-19T05:18:00,crh,6.57
2023-07-19T05:19:00,crh,6.56
2023-07-19T05:20:00,crh,6.48
2023-07-19T05:21:00,crh,5.76
2023-07-19T05:22:00,crh,6.13
2023-07-19T05:23:00,crh,7.17
2023-07-19T05:24:00,crh,5.62
2023-07-19T05:25:00,crh,6.84
2023-07-19T05:26:00,crh,6.08
2023-07-19T05:27:00,crh,11.04
2023-07-19T05:28:00,crh,11.83
2023-07-19T05:29:00,crh,10.37
2023-07-19T05:30:00,crh,10.42
2023-07-19T05:31:00,crh,10.41
2023-07-19T05:32:00,crh,6.42
2023-07-19T05:33:00,crh,6.52
2023-07-19T05:34:00,crh,6.16
2023-07-19T05:35:00,crh,6.50
2023-07-19T05:36:00,crh,6.49
2023-07-19T05:37:00,crh,6.49
2023-07-19T05:38:00,crh,6.48
2023-07-19T05:39:00,crh,6.13
2023-07-19T05:40:00,crh,6.48
2023-07-19T05:41:00,crh,7.69
2023-07-19T05:42:00,crh,6.47
2023-07-19T05:43:00,crh,6.47
2023-07-19T05:44:00,crh,6.84
2023-07-19T05:45:00,crh,5.29
2023-07-19T05:46:00,crh,7.17
2023-07-19T05:47:00,crh,6.06
2023-07-19T05:48:00,crh,6.10
2023-07-19T05:49:00,crh,7.32
2023-07-19T05:50:00,crh,6.46
2023-07-19T05:51:00,crh,7.70
2023-07-19T05:52:00,crh,10.00
2023-07-19T05:53:00,crh,11.19
2023-07-19T05:54:00,crh,11.89
2023-07-19T05:55:00,crh,10.37
2023-07-19T05:56:00,crh,8.01
2023-07-19T05:57:00,crh,6.49
2023-07-19T05:58:00,crh,6.14
2023-07-19T05:59:00,crh,6.47
2023-07-19T06:00:00,crh,6.48
2023-07-19T06:01:00,crh,8.07
2023-07-19T06:02:00,crh,6.19
2023-07-19T06:03:00,crh,7.63
2023-07-19T06:04:00,crh,6.52
2023-07-19T06:05:00,crh,6.53
2023-07-19T06:06:00,crh,5.72
2023-07-19T06:07:00,crh,5.74
2023-07-19T06:08:00,crh,6.07
2023-07-19T06:09:00,crh,6.54
2023-07-19T06:10:00,crh,6.86
2023-07-19T06:11:00,crh,6.53
2023-07-19T06:12:00,crh,7.50
2023-07-19T06:13:00,crh,6.97
2023-07-19T06:14:00,crh,6.63
2023-07-19T06:15:00,crh,8.27
2023-07-19T06:16:00,crh,8.48
2023-07-19T06:17:00,crh,6.94
2023-07-19T06:18:00,crh,10.31
2023-07-19T06:19:00,crh,10.83
2023-07-19T06:20:00,crh,10.46
2023-07-19T06:21:00,crh,10.52
2023-07-19T06:22:00,crh,12.04
2023-07-19T06:23:00,crh,6.57
2023-07-19T06:24:00,crh,7.82
2023-07-19T06:25:00,crh,6.58
2023-07-19T06:26:00,crh,6.07
2023-07-19T06:27:00,crh,7.23
2023-07-19T06:28:00,crh,6.08
2023-07-19T06:29:00,crh,6.36
2023-07-19T06:30:00,crh,8.07
2023-07-19T06:31:00,crh,6.22
2023-07-19T06:32:00,crh,5.87
2023-07-19T06:33:00,crh,6.23
2023-07-19T06:34:00,crh,6.21
2023-07-19T06:35:00,crh,6.56
2023-07-19T06:36:00,crh,8.06
2023-07-19T06:37:00,crh,17.25
2023-07-19T06:38:00,crh,7.41
2023-07-19T06:39:00,crh,6.21
2023-07-19T06:40:00,crh,6.57
2023-07-19T06:41:00,crh,6.58
2023-07-19T06:42:00,crh,7.17
2023-07-19T06:43:00,crh,10.68
2023-07-19T06:44:00,crh,10.75
2023-07-19T06:45:00,crh,11.36
2023-07-19T06:46:00,crh,11.96
2023-07-19T06:47:00,crh,11.97
2023-07-19T06:48:00,crh,7.50
2023-07-19T06:49:00,crh,9.31
2023-07-19T06:50:00,crh,7.91
2023-07-19T06:51:00,crh,7.96
2023-07-19T06:52:00,crh,7.61
2023-07-19T06:53:00,crh,8.01
2023-07-19T06:54:00,crh,7.66
2023-07-19T06:55:00,crh,7.81
2023-07-19T06:56:00,crh,8.78
2023-07-19T06:57:00,crh,8.17
2023-07-19T06:58:00,crh,8.48
2023-07-19T06:59:00,crh,7.80
2023-07-19T07:00:00,crh,9.50
2023-07-19T07:01:00,crh,8.46
2023-07-19T07:02:00,crh,8.47
2023-07-19T07:03:00,crh,9.66
2023-07-19T07:04:00,crh,7.80
2023-07-19T07:05:00,crh,7.79
2023-07-19T07:06:00,crh,7.30
2023-07-19T07:07:00,crh,11.68
2023-07-19T07:08:00,crh,11.83
2023-07-19T07:09:00,crh,12.36
2023-07-19T07:10:00,crh,12.43
2023-07-19T07:11:00,crh,12.45
2023-07-19T07:12:00,crh,7.75
2023-07-19T07:13:00,crh,8.30
2023-07-19T07:14:00,crh,7.73
2023-07-19T07:15:00,crh,9.18
2023-07-19T07:16:00,crh,8.39
2023-07-19T07:17:00,crh,8.39
2023-07-19T07:18:00,crh,8.40
2023-07-19T07:19:00,crh,9.62
2023-07-19T07:20:00,crh,7.38
2023-07-19T07:21:00,crh,7.37
2023-07-19T07:22:00,crh,7.42
2023-07-19T07:23:00,crh,7.41
2023-07-19T07:24:00,crh,9.45
2023-07-19T07:25:00,crh,9.51
2023-07-19T07:26:00,crh,7.98
2023-07-19T07:27:00,crh,8.49
2023-07-19T07:28:00,crh,11.27
2023-07-19T07:29:00,crh,12.94
2023-07-19T07:30:00,crh,11.32
2023-07-19T07:31:00,crh,11.39
2023-07-19T07:32:00,crh,12.07
2023-07-19T07:33:00,crh,8.07
2023-07-19T07:34:00,crh,8.07
2023-07-19T07:35:00,crh,8.92
2023-07-19T07:36:00,crh,7.94
2023-07-19T07:37:00,crh,7.38
2023-07-19T07:38:00,crh,7.31
2023-07-19T07:39:00,crh,9.21
2023-07-19T07:40:00,crh,7.99
2023-07-19T07:41:00,crh,7.46
2023-07-19T07:42:00,crh,7.52
2023-07-19T07:43:00,crh,6.81
2023-07-19T07:44:00,crh,8.35
2023-07-19T07:45:00,crh,7.23
2023-07-19T07:46:00,crh,7.96
2023-07-19T07:47:00,crh,9.20
2023-07-19T07:48:00,crh,9.53
2023-07-19T07:49:00,crh,7.33
2023-07-19T07:50:00,crh,10.69
2023-07-19T07:51:00,crh,10.66
2023-07-19T07:52:00,crh,11.36
2023-07-19T07:53:00,crh,11.34
2023-07-19T07:54:00,crh,13.61
2023-07-19T07:55:00,crh,7.42
2023-07-19T07:56:00,crh,7.44
2023-07-19T07:57:00,crh,8.96
2023-07-19T07:58:00,crh,8.91
2023-07-19T07:59:00,crh,7.61
2023-07-19T08:00:00,crh,9.16
2023-07-19T08:01:00,crh,7.60
2023-07-19T08:02:00,crh,7.29
2023-07-19T08:03:00,crh,7.45
2023-07-19T08:04:00,crh,8.70
2023-07-19T08:05:00,crh,7.52
2023-07-19T08:06:00,crh,8.12
2023-07-19T08:07:00,crh,8.49
2023-07-19T08:08:00,crh,10.03
2023-07-19T08:09:00,crh,7.84
2023-07-19T08:10:00,crh,7.84
2023-07-19T08:11:00,crh,11.28
2023-07-19T08:12:00,crh,11.83
2023-07-19T08:13:00,crh,14.03
2023-07-19T08:14:00,crh,12.47
2023-07-19T08:15:00,crh,11.84
2023-07-19T08:16:00,crh,7.25
2023-07-19T08:17:00,crh,7.24
2023-07-19T08:18:00,crh,7.77
2023-07-19T08:19:00,crh,7.69
2023-07-19T08:20:00,crh,8.94
2023-07-19T08:21:00,crh,9.03
2023-07-19T08:22:00,crh,8.87
2023-07-19T08:23:00,crh,8.63
2023-07-19T08:24:00,crh,7.75
2023-07-19T08:25:00,crh,7.73
2023-07-19T08:26:00,crh,8.96
2023-07-19T08:27:00,crh,7.68
2023-07-19T08:28:00,crh,9.93
2023-07-19T08:29:00,crh,8.41
2023-07-19T08:30:00,crh,8.41
2023-07-19T08:31:00,crh,8.92
2023-07-19T08:32:00,crh,7.40
2023-07-19T08:33:00,crh,11.29
2023-07-19T08:34:00,crh,11.85
2023-07-19T08:35:00,crh,11.34
2023-07-19T08:36:00,crh,10.92
2023-07-19T08:37:00,crh,11.51
2023-07-19T08:38:00,crh,8.01
2023-07-19T08:39:00,crh,8.87
2023-07-19T08:40:00,crh,7.37
2023-07-19T08:41:00,crh,8.88
2023-07-19T08:42:00,crh,7.29
2023-07-19T08:43:00,crh,9.26
2023-07-19T08:44:00,crh,8.01
2023-07-19T08:45:00,crh,8.03
2023-07-19T08:46:00,crh,8.06
2023-07-19T08:47:00,crh,8.66
2023-07-19T08:48:00,crh,8.96
2023-07-19T08:49:00,crh,7.45
2023-07-19T08:50:00,crh,9.38
2023-07-19T08:51:00,crh,8.13
2023-07-19T08:52:00,crh,7.00
2023-07-19T08:53:00,crh,7.20
2023-07-19T08:54:00,crh,8.49
2023-07-19T08:55:00,crh,11.37
2023-07-19T08:56:00,crh,11.38
2023-07-19T08:57:00,crh,12.57
2023-07-19T08:58:00,crh,11.04
2023-07-19T08:59:00,crh,11.96
2023-07-19T09:00:00,crh,7.98
2023-07-19T09:01:00,crh,8.89
2023-07-19T09:02:00,crh,7.59
2023-07-19T09:03:00,crh,8.98
2023-07-19T09:04:00,crh,7.70
2023-07-19T09:05:00,crh,8.20
2023-07-19T09:06:00,crh,7.66
2023-07-19T09:07:00,crh,8.34
2023-07-19T09:08:00,crh,9.90
2023-07-19T09:09:00,crh,6.62
2023-07-19T09:10:00,crh,6.60
2023-07-19T09:11:00,crh,6.58
2023-07-19T09:12:00,crh,7.12
2023-07-19T09:13:00,crh,9.73
2023-07-19T09:14:00,crh,12.31
2023-07-19T09:15:00,crh,13.32
2023-07-19T09:16:00,crh,12.69
2023-07-19T09:17:00,crh,13.53
2023-07-19T09:18:00,crh,12.02
2023-07-19T09:19:00,crh,8.06
2023-07-19T09:20:00,crh,7.98
2023-07-19T09:21:00,crh,9.17
2023-07-19T09:22:00,crh,9.09
2023-07-19T09:23:00,crh,8.76
2023-07-19T09:24:00,crh,18.29
2023-07-19T09:25:00,crh,18.95
2023-07-19T09:26:00,crh,17.54
2023-07-19T09:27:00,crh,7.32
2023-07-19T09:28:00,crh,7.47
2023-07-19T09:29:00,crh,9.50
2023-07-19T09:30:00,crh,13.17
2023-07-19T09:31:00,crh,13.20
2023-07-19T09:32:00,crh,13.11
2023-07-19T09:33:00,crh,12.42
2023-07-19T09:34:00,crh,12.49
2023-07-19T09:35:00,crh,12.46
2023-07-19T09:36:00,crh,8.35
2023-07-19T09:37:00,crh,8.33
2023-07-19T09:38:00,crh,8.72
2023-07-19T09:39:00,crh,8.69
2023-07-19T09:40:00,crh,10.22
2023-07-19T09:41:00,crh,8.02
2023-07-19T09:42:00,crh,8.01
2023-07-19T09:43:00,crh,7.38
2023-07-19T09:44:00,crh,9.14
2023-07-19T09:45:00,crh,6.77
2023-07-19T09:46:00,crh,9.01
2023-07-19T09:47:00,crh,12.08
2023-07-19T09:48:00,crh,14.17
2023-07-19T09:49:00,crh,13.49
2023-07-19T09:50:00,crh,11.94
2023-07-19T09:51:00,crh,11.98
2023-07-19T09:52:00,crh,7.96
2023-07-19T09:53:00,crh,7.86
2023-07-19T09:54:00,crh,7.85
2023-07-19T09:55:00,crh,8.26
2023-07-19T09:56:00,crh,8.84
2023-07-19T09:57:00,crh,8.58
2023-07-19T09:58:00,crh,7.92
2023-07-19T09:59:00,crh,8.84
2023-07-19T10:00:00,crh,7.32
2023-07-19T10:01:00,crh,7.99
2023-07-19T10:02:00,crh,6.79
2023-07-19T10:03:00,crh,12.24
2023-07-19T10:04:00,crh,13.71
2023-07-19T10:05:00,crh,12.12
2023-07-19T10:06:00,crh,12.36
2023-07-19T10:07:00,crh,12.35
2023-07-19T10:08:00,crh,12.04
2023-07-19T10:09:00,crh,13.49
2023-07-19T10:10:00,crh,7.92
2023-07-19T10:11:00,crh,7.87
2023-07-19T10:12:00,crh,8.78
2023-07-19T10:13:00,crh,8.76
2023-07-19T10:14:00,crh,10.31
2023-07-19T10:15:00,crh,8.11
2023-07-19T10:16:00,crh,7.48
2023-07-19T10:17:00,crh,7.48
2023-07-19T10:18:00,crh,8.96
2023-07-19T10:19:00,crh,12.07
2023-07-19T10:20:00,crh,13.14
2023-07-19T10:21:00,crh,13.86
2023-07-19T10:22:00,crh,12.32
2023-07-19T10:23:00,crh,12.16
2023-07-19T10:24:00,crh,12.17
2023-07-19T10:25:00,crh,12.55
2023-07-19T10:26:00,crh,12.04
2023-07-19T10:27:00,crh,8.01
2023-07-19T10:28:00,crh,8.02
2023-07-19T10:29:00,crh,9.07
2023-07-19T10:30:00,crh,10.62
2023-07-19T10:31:00,crh,8.47
2023-07-19T10:32:00,crh,9.34
2023-07-19T10:33:00,crh,7.81
2023-07-19T10:34:00,crh,9.98
2023-07-19T10:35:00,crh,9.90
2023-07-19T10:36:00,crh,8.36
2023-07-19T10:37:00,crh,9.39
2023-07-19T10:38:00,crh,12.71
2023-07-19T10:39:00,crh,12.58
2023-07-19T10:40:00,crh,13.43
2023-07-19T10:41:00,crh,11.90
2023-07-19T10:42:00,crh,13.08
2023-07-19T10:43:00,crh,9.30
2023-07-19T10:44:00,crh,7.69
2023-07-19T10:45:00,crh,9.24
2023-07-19T10:46:00,crh,7.68
2023-07-19T10:47:00,crh,7.78
2023-07-19T10:48:00,crh,7.79
2023-07-19T10:49:00,crh,7.79
2023-07-19T10:50:00,crh,9.01
2023-07-19T10:51:00,crh,7.74
2023-07-19T10:52:00,crh,7.67
2023-07-19T10:53:00,crh,7.68
2023-07-19T10:54:00,crh,8.81
2023-07-19T10:55:00,crh,7.25
2023-07-19T10:56:00,crh,7.96
2023-07-19T10:57:00,crh,9.98
2023-07-19T10:58:00,crh,13.70
2023-07-19T10:59:00,crh,11.43
2023-07-19T11:00:00,crh,11.47
2023-07-19T11:01:00,crh,11.62
2023-07-19T11:02:00,crh,13.28
2023-07-19T11:03:00,crh,7.13
2023-07-19T11:04:00,crh,7.12
2023-07-19T11:05:00,crh,7.85
2023-07-19T11:06:00,crh,8.46
2023-07-19T11:07:00,crh,7.82
2023-07-19T11:08:00,crh,7.81
2023-07-19T11:09:00,crh,7.78
2023-07-19T11:10:00,crh,8.80
2023-07-19T11:11:00,crh,7.19
2023-07-19T11:12:00,crh,7.75
2023-07-19T11:13:00,crh,7.20
2023-07-19T11:14:00,crh,8.39
2023-07-19T11:15:00,crh,8.42
2023-07-19T11:16:00,crh,8.40
2023-07-19T11:17:00,crh,7.14
2023-07-19T11:18:00,crh,11.15
2023-07-19T11:19:00,crh,11.15
2023-07-19T11:20:00,crh,12.34
2023-07-19T11:21:00,crh,11.87
2023-07-19T11:22:00,crh,11.92
2023-07-19T11:23:00,crh,8.48
2023-07-19T11:24:00,crh,8.54
2023-07-19T11:25:00,crh,8.52
2023-07-19T11:26:00,crh,9.37
2023-07-19T11:27:00,crh,7.85
2023-07-19T11:28:00,crh,7.74
2023-07-19T11:29:00,crh,7.67
2023-07-19T11:30:00,crh,7.64
2023-07-19T11:31:00,crh,9.04
2023-07-19T11:32:00,crh,8.23
2023-07-19T11:33:00,crh,8.23
2023-07-19T11:34:00,crh,7.92
2023-07-19T11:35:00,crh,7.85
2023-07-19T11:36:00,crh,8.26
2023-07-19T11:37:00,crh,12.25
2023-07-19T11:38:00,crh,12.21
2023-07-19T11:39:00,crh,13.82
2023-07-19T11:40:00,crh,12.30
2023-07-19T11:41:00,crh,12.30
2023-07-19T11:42:00,crh,8.97
2023-07-19T11:43:00,crh,8.96
2023-07-19T11:44:00,crh,7.43
2023-07-19T11:45:00,crh,7.44
2023-07-19T11:46:00,crh,6.80
2023-07-19T11:47:00,crh,7.25
2023-07-19T11:48:00,crh,7.21
2023-07-19T11:49:00,crh,7.82
2023-07-19T11:50:00,crh,7.82
2023-07-19T11:51:00,crh,8.38
2023-07-19T11:52:00,crh,8.40
2023-07-19T11:53:00,crh,8.60
2023-07-19T11:54:00,crh,7.75
2023-07-19T11:55:00,crh,7.74
2023-07-19T11:56:00,crh,12.21
2023-07-19T11:57:00,crh,11.70
2023-07-19T11:58:00,crh,11.70
2023-07-19T11:59:00,crh,11.79
2023-07-19T12:00:00,crh,11.11
2023-07-19T12:01:00,crh,11.78
2023-07-19T12:02:00,crh,7.60
2023-07-19T12:03:00,crh,8.21
2023-07-19T12:04:00,crh,8.04
2023-07-19T12:05:00,crh,8.04
2023-07-19T12:06:00,crh,8.04
2023-07-19T12:07:00,crh,7.97
2023-07-19T12:08:00,crh,9.32
2023-07-19T12:09:00,crh,7.79
2023-07-19T12:10:00,crh,7.79
2023-07-19T12:11:00,crh,8.82
2023-07-19T12:12:00,crh,10.20
2023-07-19T12:13:00,crh,8.07
2023-07-19T12:14:00,crh,7.43
2023-07-19T12:15:00,crh,11.53
2023-07-19T12:16:00,crh,11.81
2023-07-19T12:17:00,crh,11.54
2023-07-19T12:18:00,crh,12.71
2023-07-19T12:19:00,crh,11.13
2023-07-19T12:20:00,crh,7.60
2023-07-19T12:21:00,crh,8.31
2023-07-19T12:22:00,crh,8.29
2023-07-19T12:23:00,crh,8.30
2023-07-19T12:24:00,crh,8.31
2023-07-19T12:25:00,crh,9.19
2023-07-19T12:26:00,crh,7.04
2023-07-19T12:27:00,crh,7.02
2023-07-19T12:28:00,crh,6.95
2023-07-19T12:29:00,crh,7.56
2023-07-19T12:30:00,crh,7.67
2023-07-19T12:31:00,crh,8.07
2023-07-19T12:32:00,crh,8.79
2023-07-19T12:33:00,crh,8.72
2023-07-19T12:34:00,crh,9.94
2023-07-19T12:35:00,crh,9.10
2023-07-19T12:36:00,crh,11.52
2023-07-19T12:37:00,crh,12.05
2023-07-19T12:38:00,crh,12.02
2023-07-19T12:39:00,crh,14.75
2023-07-19T12:40:00,crh,11.10
2023-07-19T12:41:00,crh,7.04
2023-07-19T12:42:00,crh,8.70
2023-07-19T12:43:00,crh,8.71
2023-07-19T12:44:00,crh,10.22
2023-07-19T12:45:00,crh,8.04
2023-07-19T12:46:00,crh,8.05
2023-07-19T12:47:00,crh,7.90
2023-07-19T12:48:00,crh,7.64
2023-07-19T12:49:00,crh,7.63
2023-07-19T12:50:00,crh,7.11
2023-07-19T12:51:00,crh,6.50
2023-07-19T12:52:00,crh,8.03
2023-07-19T12:53:00,crh,7.06
2023-07-19T12:54:00,crh,8.35
2023-07-19T12:55:00,crh,8.33
2023-07-19T12:56:00,crh,8.33
2023-07-19T12:57:00,crh,12.90
2023-07-19T12:58:00,crh,13.27
2023-07-19T12:59:00,crh,11.72
2023-07-19T13:00:00,crh,11.75
2023-07-19T13:01:00,crh,11.84
2023-07-19T13:02:00,crh,9.25
2023-07-19T13:03:00,crh,7.07
2023-07-19T13:04:00,crh,7.67
2023-07-19T13:05:00,crh,7.68
2023-07-19T13:06:00,crh,7.18
2023-07-19T13:07:00,crh,7.15
2023-07-19T13:08:00,crh,7.15
2023-07-19T13:09:00,crh,7.62
2023-07-19T13:10:00,crh,7.26
2023-07-19T13:11:00,crh,7.23
2023-07-19T13:12:00,crh,9.09
2023-07-19T13:13:00,crh,7.58
2023-07-19T13:14:00,crh,9.13
2023-07-19T13:15:00,crh,8.32
2023-07-19T13:16:00,crh,8.54
2023-07-19T13:17:00,crh,11.60
2023-07-19T13:18:00,crh,11.08
2023-07-19T13:19:00,crh,11.65
2023-07-19T13:20:00,crh,13.17
2023-07-19T13:21:00,crh,11.58
2023-07-19T13:22:00,crh,7.07
2023-07-19T13:23:00,crh,7.06
2023-07-19T13:24:00,crh,7.06
2023-07-19T13:25:00,crh,7.54
2023-07-19T13:26:00,crh,8.28
2023-07-19T13:27:00,crh,8.25
2023-07-19T13:28:00,crh,7.64
2023-07-19T13:29:00,crh,7.00
2023-07-19T13:30:00,crh,7.00
2023-07-19T13:31:00,crh,7.61
2023-07-19T13:32:00,crh,7.79
2023-07-19T13:33:00,crh,9.06
2023-07-19T13:34:00,crh,7.54
2023-07-19T13:35:00,crh,9.42
2023-07-19T13:36:00,crh,12.62
2023-07-19T13:37:00,crh,11.51
2023-07-19T13:38:00,crh,12.13